Regional Weather Roundup
Issued by NWS Charleston, WV

Home | Current Version | Previous Version | Text Only | Print | Product List | Glossary On
Versions: 1 2 3 4 5 6 7 8 9 10 11 12 13 14 15 16 17 18 19 20 21 22 23 24 25 26 27 28 29 30 31 32 33 34 35 36 37 38 39 40 41 42 43 44 45 46 47 48 49 50
000
ASUS41 KRLX 271110
RWRRLX
West Virginia Regional Weather Roundup
National Weather Service Charleston WV
Issued by National Weather Service Pittsburgh PA
700 AM EDT SAT AUG 27 2016

Note: "fair" indicates few or no clouds below 12,000 feet with no
significant weather and/or obstructions to visibility.

WVZ003-271200-
Northern Panhandle of West Virginia

CITY           SKY/WX    TMP DP  RH WIND       PRES   REMARKS
WHEELING       PTCLDY    69  62  78 E5        30.18S
$$

WVZ009-271200-
Northwest West Virginia

CITY           SKY/WX    TMP DP  RH WIND       PRES   REMARKS
PARKERSBURG    FOG       70  69  97 CALM      30.17S VSB 1/2
$$

WVZ006-271200-
Western West Virginia

CITY           SKY/WX    TMP DP  RH WIND       PRES   REMARKS
HUNTINGTON     FOG       72  70  93 CALM      30.12R VSB 1/4
$$

WVZ015-271200-
West Central West Virginia

CITY           SKY/WX    TMP DP  RH WIND       PRES   REMARKS
CHARLESTON     FOG       71  70  96 CALM      30.14R VSB 1
$$

WVZ031-271200-
North Central West Virginia

CITY           SKY/WX    TMP DP  RH WIND       PRES   REMARKS
CLARKSBURG     CLOUDY    68  67  96 N3        30.19R FOG
MORGANTOWN     CLEAR     69  67  93 CALM      30.20S FOG
$$

WVZ035-042-271200-
South Central West Virginia

CITY           SKY/WX    TMP DP  RH WIND       PRES   REMARKS
BECKLEY        CLEAR     66  64  93 CALM      30.24R
BLUEFIELD      FOG       66  65  96 E3        30.26R VSB 1/4
$$

WVZ045-271200-
Greenbrier Valley of West Virginia

CITY           SKY/WX    TMP DP  RH WIND       PRES   REMARKS
LEWISBURG      CLEAR     64  63  97 CALM      30.25R
$$

WVZ047-271200-
Northern Mountains of West Virginia

CITY           SKY/WX    TMP DP  RH WIND       PRES   REMARKS
ELKINS         FOG       66  64  93 CALM      30.25R VSB 1/4
$$

WVZ052-271200-
Eastern Panhandle of West Virginia

CITY           SKY/WX    TMP DP  RH WIND       PRES   REMARKS
MARTINSBURG    CLEAR     66  65  96 CALM      30.18R FOG
PETERSBURG     CLOUDY    66  65  99 CALM      30.22R FOG
$$




USA.gov is the U.S. government's official web portal to all federal, state and local government web resources and services.